Meteo Giornale » Osservazioni meteo Stati Uniti (USA) » Wakefield

ore: 18:54 - Osservazioni Meteo Wakefield
Lat. 36° 58' N Lon. 77° 0' W Alt. 34 metri s.l.m.

sereno

27 °C

Sereno

Temp. 24 Ore

21 °C

33 °C

Nord

0 Km/h

Dew point 24 °C

Umidità 83 %

Visibilità  10 Km

Il sole sorge alle ore 06:38

Il sole tramonta alle ore 19:38

Data e Ora Cielo e Fenomeni T °C DP °C Um. % Pres. hPa Vis. km Vento km/h
Oggi h: 18:54 sereno Sereno 27 24 83 1017 10 N 0
Oggi h: 17:54 sereno Sereno 28 23 74 1017 10 N 0
Oggi h: 16:54 molto_nuvoloso Molto Nuvoloso 26 24 88 1018 10 N 0
Oggi h: 16:05 coperto Coperto 26 23 83 1018 10 E 9.3
Oggi h: 15:54 nuvoloso_temporali Temporale nelle vicinanze 27 24 83 1018 10 N 7.4
Oggi h: 15:47 nuvoloso_temporali Temporale nelle vicinanze 27 23 78 1018 10 N 0
Oggi h: 15:35 coperto_pioggia Pioggia 26 22 78 1018 5 N 5.5
Oggi h: 15:17 coperto_pioggia Pioggia 27 23 78 1018 2 S/SO 11.1
Oggi h: 14:54 molto_nuvoloso Molto Nuvoloso 29 22 66 1018 10 N 11.1
Oggi h: 13:54 poco_nuvoloso Poco Nuvoloso 33 19 43 1018 10 N 0
Oggi h: 12:54 nuvoloso Nuvoloso 33 21 49 1018 10 N 0
Oggi h: 11:54 sereno Sereno 32 21 52 1019 10 N 0
Oggi h: 10:54 sereno Sereno 31 21 55 1019 10 N 0
Oggi h: 09:54 sereno Sereno 28 21 65 1019 10 N 5.5
Oggi h: 08:54 sereno Sereno 26 22 78 1019 10 N 0
Oggi h: 07:54 sereno Sereno 23 21 88 1019 10 N 5.5
Oggi h: 06:54 foschia Foschia 21 21 100 1019 10 N 0
Oggi h: 04:54 nuvoloso Nuvoloso 23 22 94 1019 10 N 0
Oggi h: 03:54 molto_nuvoloso Molto Nuvoloso 23 22 94 1019 10 N 0
Oggi h: 02:54 sereno Sereno 23 22 94 1019 10 N 5.5
Oggi h: 01:54 sereno Sereno 23 22 94 1019 10 N 0
Oggi h: 00:54 sereno Sereno 23 22 94 1019 10 N 0
Ieri h: 23:54 sereno Sereno 24 23 94 1019 10 N 0
Ieri h: 22:54 sereno Sereno 24 23 94 1019 10 N 0
Ieri h: 21:54 sereno Sereno 25 23 88 1020 10 N 0
Ieri h: 20:54 sereno Sereno 24 22 88 1020 10 N 0
Ieri h: 19:54 sereno Sereno 27 22 74 1019 10 N 0